SCP
0 0 0 0 0 -0 -0 0 0 0 0 0 0 0 0 0 0 0 0 0 0 0 0 0 0 0 0 0 0 0 0 0 0 1 1 1 0 0 0 0 0 0 0 0
0 0 0 0 0 -0 -0 0 0 0 0 0 0 0 0 0 0 0 0 0 0 0 0 0 0 0 0 0 0 0 0 0 0 1 1 1 0 0 0 0 0 0 0 0
0 0 0 0 0 -0 -0 0 0 0 0 0 0 0 0 0 0 0 0 0 0 0 0 0 0 0 0 0 0 0 0 0 0 0 1 1 0 0 0 0 0 0 0 0
0 -0 0 0 0 0 0 0 0 0 0 0 0 0 0 0 0 0 0 0 0 0 0 0 0 0 0 0 0 0 0 0 0 0 0 0 0 0 0 0 0 0 0 0
0 -0 -0 0 0 0 0 0 0 0 0 0 0 0 0 0 0 0 0 0 0 0 0 0 0 0 0 0 0 0 0 0 0 0 0 0 0 0 0 0 0 0 0 0
0 -0 0 0 0 0 0 0 0 0 0 0 0 0 0 0 0 0 0 0 0 0 0 0 0 0 0 0 0 0 0 0 0 0 0 0 0 0 0 0 0 0 0 0
0 0 0 0 0 0 0 0 0 0 0 0 0 0 0 0 0 0 0 0 0 0 0 0 0 0 0 0 0 0 0 0 0 0 0 0 0 0 0 0 0 0 0 0
0 0 0 0 0 0 0 0 0 0 0 0 0 0 0 0 0 0 0 0 0 0 0 0 0 0 0 0 0 0 0 0 0 0 0 0 0 0 0 0 0 0 0 0
0 0 0 0 0 0 0 0 -0 0 0 0 0 0 0 0 0 0 0 0 0 0 0 0 0 0 0 0 0 0 0 0 0 0 0 0 0 0 0 0 0 0 0 0
0 0 0 0 0 0 0 0 0 0 0 0 0 0 0 0 0 0 0 0 0 0 0 0 0 0 0 0 0 0 0 0 0 0 0 0 0 0 0 0 0 0 0 0
0 0 0 0 0 0 0 0 0 0 0 0 0 0 0 0 0 0 0 0 0 0 0 0 0 0 0 0 0 0 0 0 0 0 0 0 0 0 0 0 0 0 0 0
0 0 0 0 0 0 0 0 0 0 0 0 0 0 0 0 0 0 0 0 0 0 0 0 0 0 0 0 0 0 0 0 0 0 0 0 0 0 0 0 0 0 0 0
0 0 0 0 0 0 0 0 0 0 0 0 0 0 0 0 0 0 0 0 0 0 0 0 0 0 0 0 0 0 0 0 0 0 0 0 0 0 0 0 0 0 0 0
0 0 0 0 0 0 0 0 0 0 0 0 0 0 0 0 0 0 0 0 0 0 0 0 0 0 0 0 0 0 0 0 0 0 0 0 0 0 0 0 0 0 0 0
0 0 0 0 0 0 0 0 0 0 0 0 0 0 0 0 0 0 0 0 0 0 0 0 0 0 0 0 0 0 0 0 0 0 0 0 0 0 0 0 0 0 0 0
0 0 0 0 0 0 0 0 0 0 0 0 0 0 0 0 0 0 0 0 0 0 0 0 0 0 0 0 0 0 0 0 0 0 0 0 0 0 0 0 0 0 0 0
0 0 0 0 0 0 0 0 0 0 0 0 0 0 0 0 0 0 0 0 0 0 0 0 0 0 0 0 0 0 0 0 0 0 0 0 0 0 0 0 0 0 0 0
0 0 0 0 0 0 0 0 0 0 0 0 0 0 0 0 0 0 0 0 0 0 0 0 0 0 0 0 0 0 0 0 0 0 0 0 0 0 0 0 0 0 0 0
0 0 0 0 0 0 0 0 0 0 0 0 0 0 0 0 0 0 0 0 0 0 0 0 0 0 0 0 0 0 0 0 0 0 0 0 0 0 0 0 0 0 0 0
0 0 0 0 0 0 0 0 0 0 0 0 0 0 0 0 0 0 0 0 0 0 0 0 0 0 0 0 0 0 0 0 0 0 0 0 0 0 0 0 0 0 0 0
0 0 0 0 0 0 0 0 0 0 0 0 0 0 0 0 0 0 0 0 0 0 0 0 0 0 0 0 0 0 0 0 0 0 0 0 0 0 0 0 0 0 0 0
0 0 0 0 0 0 0 0 0 0 0 0 0 0 0 0 0 0 0 0 0 0 0 0 0 0 0 0 0 0 0 0 0 0 0 0 0 0 0 0 0 0 0 0
0 0 0 0 0 -0 -0 -0 -0 0 0 0 0 0 0 0 0 0 0 0 0 0 0 0 0 0 0 0 0 -0 0 0 0 0 0 0 0 0 0 0 0 0 0 0
0 0 0 0 0 0 -0 -0 -0 0 0 0 0 0 0 0 0 0 0 0 0 0 0 0 0 0 0 0 0 -0 -0 0 0 0 0 0 0 0 0 -0 0 0 0 0
0 0 0 0 0 0 -0 0 0 0 0 0 0 0 0 0 0 0 0 0 0 0 0 0 0 0 0 0 0 0 0 -0 0 0 0 0 0 0 -0 -0 0 0 0 0
0 0 0 0 0 0 0 0 0 0 0 0 0 0 0 0 0 0 0 0 0 0 0 0 0 0 0 0 0 0 0 0 0 0 0 0 0 0 0 0 0 0 0 0
Wind_Speed
3 4 2 5 5 4 4 2 1 1 1 4 5 5 3 4 6 6 6 6 6 5 5 6 7 7 7 8 7 6 5 3 2 1 1 1 0 1 1 1 2 3 2 2
4 1 5 4 3 3 3 2 1 1 3 5 6 5 2 3 4 5 6 5 5 5 5 6 7 7 8 7 7 6 6 5 3 1 1 1 1 0 1 1 3 3 3 2
4 5 2 4 3 3 3 5 4 4 4 5 6 3 1 1 3 4 5 5 5 5 5 5 6 7 7 7 7 5 5 5 4 2 1 1 1 1 2 2 2 3 2 1
3 4 2 2 3 6 3 5 6 6 4 1 3 3 3 3 3 4 5 5 5 5 5 4 5 6 6 6 6 6 6 6 4 3 2 2 2 1 1 1 2 3 3 3
4 2 2 3 4 6 3 3 5 4 5 3 2 3 3 4 5 6 6 5 5 5 5 4 4 5 5 6 6 6 7 7 6 5 3 3 3 1 1 2 3 3 4 4
4 2 3 4 1 4 5 7 7 6 5 2 1 3 4 5 7 7 7 7 7 6 5 5 5 5 5 6 6 6 7 8 7 7 6 4 4 3 3 3 3 3 3 3
3 2 2 2 2 3 5 6 4 4 4 3 1 2 6 4 4 7 10 9 8 7 6 5 4 4 5 6 6 6 7 7 7 7 6 5 4 4 3 3 3 3 3 3
1 3 2 2 5 5 3 8 8 5 4 3 2 4 4 1 1 4 8 9 8 7 6 5 4 4 4 5 6 6 7 7 7 6 5 5 5 3 3 3 3 3 2 3
4 3 3 0 2 7 6 3 5 7 3 0 4 4 3 3 4 6 9 10 9 7 6 5 4 4 4 5 5 5 6 6 6 6 5 5 5 5 4 4 4 3 3 3
6 2 3 1 5 5 5 8 6 6 5 2 4 4 5 7 8 9 10 10 9 8 6 5 4 3 4 4 4 5 5 5 5 6 5 5 5 5 4 4 5 5 5 5
4 3 2 3 2 3 4 4 6 5 5 5 3 7 5 9 11 13 12 11 10 9 8 6 4 3 3 4 4 5 5 5 5 6 5 5 5 5 5 5 5 5 5 6
3 5 0 2 2 1 3 5 7 5 4 4 4 8 3 4 8 10 11 10 10 9 7 6 4 4 3 4 4 4 4 4 4 4 5 5 5 5 6 6 5 5 6 6
4 6 3 5 5 3 2 2 3 5 5 5 4 7 2 3 6 8 10 11 10 9 8 6 5 3 3 3 3 3 3 4 4 4 5 5 5 6 5 5 5 5 6 6
5 4 6 7 6 3 1 2 4 5 4 5 7 6 3 5 7 8 10 10 10 9 8 7 5 3 3 3 3 3 3 3 4 4 5 5 5 5 5 5 5 5 6 6
5 3 2 2 2 2 2 2 4 4 6 7 6 6 6 8 9 10 10 11 10 10 9 8 6 4 4 3 3 3 3 3 4 5 5 5 4 4 5 6 5 6 6 7
4 3 1 2 1 1 1 1 2 2 2 3 2 4 1 6 7 9 11 11 11 10 9 8 7 6 5 4 3 3 3 3 4 4 4 4 4 5 5 5 5 6 6 6
2 3 2 1 2 2 2 3 2 2 2 4 5 4 6 6 9 10 11 10 10 9 9 8 7 6 5 4 4 3 2 3 4 4 4 4 5 5 5 5 6 6 5 6
4 3 3 1 2 2 5 2 2 2 1 1 1 3 6 6 5 5 6 8 9 9 9 8 7 6 5 5 4 4 4 4 4 4 4 4 5 5 5 6 6 5 4 5
4 6 4 3 1 4 4 1 1 2 2 1 5 7 7 9 7 4 4 6 7 8 8 7 7 7 6 5 5 5 4 4 4 4 4 4 4 4 5 5 5 4 4 5
4 4 5 3 2 3 5 2 1 2 3 2 6 10 9 7 4 3 5 8 9 9 8 8 7 7 6 5 5 5 4 3 3 3 3 4 4 4 4 4 4 4 4 4
3 3 3 3 2 6 4 2 1 1 5 3 7 9 8 4 4 6 9 9 9 9 9 9 8 7 6 5 5 5 4 3 2 3 4 4 4 4 4 4 3 4 5 5
3 3 3 4 2 6 3 1 3 4 1 4 6 7 8 8 9 9 10 10 10 10 9 8 8 6 5 5 6 5 3 2 3 4 4 4 4 3 4 4 4 4 4 4
1 3 4 5 5 3 2 1 1 2 4 4 6 8 11 11 10 10 9 10 9 9 8 7 8 7 5 4 5 5 3 3 4 4 4 3 4 3 3 3 3 3 3 3
2 1 1 1 3 1 1 1 2 3 4 5 8 10 11 11 11 11 10 9 9 8 8 7 8 7 5 3 3 3 3 4 5 4 3 3 3 3 3 2 2 2 2 2
3 1 1 2 2 1 2 2 4 7 9 10 9 8 11 13 12 10 9 9 8 7 6 6 7 7 5 4 3 3 4 4 4 3 3 2 2 2 2 3 2 1 0 2
4 5 5 5 5 4 2 3 5 8 8 10 11 9 8 10 12 10 9 8 8 7 6 7 6 6 5 4 4 3 3 4 5 3 2 2 2 2 2 2 2 4 1 1
Wind_Direction
93 86 175 204 185 168 147 141 221 263 131 91 103 113 128 129 125 125 121 117 107 90 67 50 42 42 44 43 42 39 43 38 64 93 107 108 107 70 44 31 27 15 3 357
51 267 224 189 162 145 145 146 174 57 78 105 109 101 111 116 132 140 139 128 112 94 67 50 41 37 40 42 40 36 33 26 24 20 154 148 141 78 64 16 37 23 3 353
175 238 184 154 158 158 189 180 183 156 71 75 111 88 133 112 110 119 124 122 117 109 85 51 40 35 34 35 32 34 29 27 22 11 39 59 57 43 27 5 21 17 353 348
227 249 184 166 192 162 231 214 165 144 121 147 146 169 218 183 162 157 148 135 122 107 95 71 50 36 32 28 27 32 32 32 24 25 57 81 85 71 13 2 7 8 9 6
238 214 178 202 212 168 195 102 117 122 122 95 50 135 249 178 197 195 170 151 130 116 105 88 63 45 35 30 32 32 35 34 26 30 46 70 66 55 30 36 31 15 10 10
239 236 200 204 156 144 130 76 62 55 75 92 213 154 241 209 207 185 170 158 141 125 107 88 68 53 41 34 37 36 41 36 28 33 37 53 60 53 49 36 31 13 5 4
332 311 247 162 98 55 97 92 46 13 17 252 255 184 241 226 206 184 173 160 143 134 120 104 81 60 48 38 35 36 41 37 29 34 36 40 45 47 45 29 28 21 11 6
145 296 270 182 168 163 156 137 152 184 211 264 307 235 252 224 139 149 150 143 140 137 129 118 101 80 63 48 37 38 37 33 27 32 32 34 40 49 43 35 32 30 21 9
171 256 303 8 125 131 130 132 149 124 127 159 275 280 289 128 130 136 142 145 150 146 136 123 107 85 67 54 42 40 40 34 26 28 32 34 33 39 38 33 36 32 22 23
161 205 309 332 79 43 123 139 103 114 140 240 282 261 237 197 187 171 166 162 155 147 136 124 111 92 72 61 49 47 47 41 31 27 30 39 35 37 39 42 41 39 32 33
138 145 328 30 85 160 109 94 100 106 143 156 241 264 226 200 186 179 176 164 159 156 148 141 127 106 86 67 55 48 45 45 36 31 30 37 37 38 44 47 41 40 41 40
127 118 122 293 302 123 136 155 145 147 194 171 186 263 305 205 178 168 164 156 153 150 143 136 131 117 98 78 62 51 45 46 39 38 39 40 40 41 44 43 38 42 45 44
125 110 80 354 347 5 78 127 132 122 118 154 181 260 23 106 135 150 153 151 148 145 139 135 130 122 105 85 69 55 47 45 42 47 48 44 40 41 40 41 39 45 51 47
107 108 153 186 215 212 219 177 151 131 148 197 220 237 219 165 157 155 152 151 149 148 147 144 138 130 111 94 80 66 49 44 50 54 53 45 38 40 43 44 44 46 52 52
83 114 179 221 229 185 208 215 180 188 190 193 235 226 227 189 173 161 152 150 151 152 154 154 151 143 127 108 87 72 57 49 54 58 53 44 38 44 52 50 47 48 51 54
57 108 85 357 359 146 201 252 175 202 194 208 231 257 198 134 134 144 154 160 162 163 161 157 152 147 141 131 114 92 74 61 63 62 52 46 50 52 52 53 54 54 51 51
54 103 86 309 321 44 299 262 205 200 200 185 214 221 140 142 158 164 165 167 166 159 156 157 155 152 145 135 121 111 96 76 69 65 59 56 57 54 51 57 59 57 52 55
134 103 109 86 40 250 255 284 186 165 220 182 157 134 145 138 127 127 147 156 156 154 154 153 148 142 135 126 119 109 90 81 73 64 59 58 63 60 54 57 56 52 53 58
152 132 114 110 113 292 297 287 152 158 285 151 137 124 113 112 93 83 120 135 145 146 142 139 138 135 131 128 123 112 97 85 75 67 59 58 69 67 59 57 52 51 59 57
78 94 108 113 132 252 263 295 166 98 297 180 147 145 143 131 132 176 140 126 121 121 124 126 125 122 124 124 120 112 106 93 86 79 70 64 74 77 68 62 58 57 64 62
67 67 111 148 205 264 275 291 118 164 257 169 148 148 147 142 149 134 125 120 121 121 123 124 124 125 129 130 122 115 111 106 104 96 81 70 69 77 75 68 63 69 71 66
163 145 163 146 185 259 322 44 172 216 116 121 132 132 121 113 111 114 119 122 123 122 123 124 123 120 123 128 124 117 115 111 100 94 84 73 66 72 81 80 70 69 75 70
197 190 182 182 208 248 317 264 310 137 129 132 132 128 126 124 125 123 122 124 125 127 125 123 123 120 116 121 124 126 130 118 107 94 85 77 71 65 74 87 87 77 76 79
286 135 126 267 283 320 6 42 53 88 115 121 126 129 129 128 130 126 125 125 126 124 124 124 124 124 123 126 125 134 130 119 110 102 96 87 78 61 45 56 78 97 104 102
243 167 140 261 266 30 29 63 101 95 102 107 110 118 129 130 131 129 129 130 128 123 120 125 130 133 136 133 126 126 122 118 111 106 104 93 79 81 56 46 42 70 162 200
210 187 181 221 209 174 191 145 125 119 122 126 121 115 121 130 132 128 128 129 128 127 123 124 126 129 132 128 122 118 124 128 124 116 107 103 98 84 79 72 46 38 46 55